DW9568 Weather Reports


time (UTC)temp
F
wind
direction
speed
knots
gust
knots
rain 1hr
in
rain 24hr
in
rain mn
in
humidity
%
barometer
mb
20260504050015 56 143 0.0 0.0 0.00 0.03 0.00 71 1005.6
20260504044520 56 207 0.0 0.0 0.00 0.03 0.03 72 1005.6
20260504043014 56 113 0.0 0.0 0.00 0.03 0.03 72 1005.5
20260504041515 56 146 0.0 0.0 0.00 0.03 0.03 72 1005.4
20260504040014 57 153 0.0 0.0 0.00 0.03 0.03 72 1005.5
20260504034512 57 175 0.0 0.0 0.00 0.03 0.03 71 1005.5
20260504033014 57 168 0.0 0.0 0.00 0.03 0.03 70 1005.6
20260504031512 58 169 0.0 0.0 0.00 0.03 0.03 69 1005.6
20260504030015 58 148 0.0 0.0 0.00 0.03 0.03 68 1005.5
20260504024514 59 173 0.0 0.0 0.00 0.03 0.03 67 1005.5
20260504023010 60 163 0.0 0.0 0.00 0.03 0.03 66 1005.5
20260504021513 60 164 0.0 0.0 0.00 0.03 0.03 64 1005.4
20260504020009 61 173 0.0 0.0 0.00 0.03 0.03 63 1005.3
20260504014508 62 169 0.0 0.0 0.00 0.03 0.03 61 1005.2
20260504013009 63 175 0.0 0.0 0.00 0.03 0.03 59 1005.1
20260504011518 64 182 0.0 0.0 0.00 0.03 0.03 58 1004.9
20260504010009 65 172 0.0 0.0 0.00 0.03 0.03 56 1004.9
20260504004508 66 213 0.0 0.0 0.00 0.03 0.03 53 1004.8
20260504003007 67 151 0.0 0.0 0.00 0.03 0.03 51 1004.9
20260504001506 68 203 0.0 0.0 0.00 0.03 0.03 50 1004.9
20260504000010 70 192 0.0 0.0 0.00 0.03 0.03 48 1004.9
20260503234507 71 244 0.0 3.5 0.00 0.03 0.03 45 1005.0
20260503233003 71 229 0.0 0.9 0.00 0.03 0.03 45 1005.0
20260503231502 71 211 0.0 0.0 0.00 0.03 0.03 46 1005.2
20260503230104 71 236 0.0 4.3 0.00 0.03 0.03 46 1005.3
20260503224558 71 250 0.0 5.2 0.00 0.03 0.03 46 1005.4
20260503223056 70 153 0.0 2.6 0.00 0.03 0.03 47 1005.5
20260503221554 70 229 0.0 5.2 0.00 0.03 0.03 46 1005.5
20260503220101 70 229 0.0 5.2 0.00 0.03 0.03 47 1005.7
20260503214551 70 221 0.0 7.8 0.00 0.03 0.03 45 1005.7
20260503213053 70 178 0.9 8.7 0.00 0.03 0.03 45 1005.8
20260503211549 70 198 0.0 7.0 0.00 0.03 0.03 45 1005.8
20260503210048 69 219 0.0 9.6 0.00 0.03 0.03 45 1005.9
20260503204545 69 213 0.9 10.4 0.00 0.03 0.03 46 1006.2
20260503203051 68 130 0.0 11.3 0.00 0.03 0.03 49 1006.6
20260503201544 67 163 0.9 11.3 0.00 0.03 0.03 49 1007.0
20260503200038 67 130 0.9 7.8 0.00 0.03 0.03 48 1007.4
20260503194535 66 197 0.0 13.0 0.00 0.03 0.03 48 1007.6
20260503193037 66 163 0.9 6.1 0.00 0.03 0.03 51 1008.0
20260503191537 66 159 0.9 13.0 0.00 0.03 0.03 48 1008.1
20260503190028 64 160 0.9 10.4 0.00 0.03 0.03 54 1008.2
20260503184525 62 176 0.9 6.1 0.00 0.03 0.03 59 1008.6
20260503183020 61 131 0.0 7.0 0.00 0.03 0.03 61 1008.6
20260503181517 59 111 0.9 12.2 0.00 0.03 0.03 63 1008.8
20260503180013 58 150 0.9 7.8 0.01 0.03 0.03 64 1009.0
20260503174509 57 130 0.9 9.6 0.01 0.03 0.03 64 1009.5
20260503173009 57 148 0.0 7.0 0.01 0.03 0.03 66 1009.9
20260503171505 56 115 0.9 8.7 0.01 0.03 0.03 67 1010.0
20260503160110 51 97 0.0 5.2 0.01 0.02 0.02 79 1011.8
20260503081510 46 171 0.0 0.0 0.00 0.00 0.00 62 1014.6
20260503071611 46 178 0.0 1.7 0.00 0.00 0.00 62 1014.9